FW7729 Weather Reports


Display with metric or nautical units.
time (UTC)temp
F
wind
direction
speed
MPH
gust
MPH
rain 1hr
in
rain 24hr
in
rain mn
in
humidity
%
barometer
mb
20260504225931 73 194 2.0 0.0 0.00 0.00 0.00 53 1009.2
20260504224827 73 223 2.0 0.0 0.00 0.00 0.00 52 1009.1
20260504224253 73 269 2.0 0.0 0.00 0.00 0.00 53 1009.1
20260504222619 73 239 2.0 0.0 0.00 0.00 0.00 51 1009.0
20260504222045 73 197 1.0 0.0 0.00 0.00 0.00 51 1009.1
20260504221511 74 256 2.0 0.0 0.00 0.00 0.00 51 1009.1
20260504220936 74 179 3.0 0.0 0.00 0.00 0.00 50 1009.0
20260504220402 74 184 3.0 0.0 0.00 0.00 0.00 50 1009.0
20260504214728 74 233 2.0 0.0 0.00 0.00 0.00 49 1009.0
20260504214154 74 168 2.0 0.0 0.00 0.00 0.00 50 1009.1
20260504213620 74 215 3.0 0.0 0.00 0.00 0.00 50 1009.1
20260504211946 75 160 2.0 0.0 0.00 0.00 0.00 50 1009.1
20260504211412 75 253 2.0 0.0 0.00 0.00 0.00 49 1009.0
20260504210838 75 251 2.0 0.0 0.00 0.00 0.00 49 1009.0
20260504210304 75 221 1.0 0.0 0.00 0.00 0.00 50 1009.0
20260504205730 74 228 2.0 0.0 0.00 0.00 0.00 49 1009.0
20260504204626 74 260 2.0 0.0 0.00 0.00 0.00 49 1009.1
20260504204051 74 241 1.0 0.0 0.00 0.00 0.00 49 1009.2
20260504202947 74 172 3.0 0.0 0.00 0.00 0.00 48 1009.3
20260504202412 74 204 2.0 0.0 0.00 0.00 0.00 49 1009.3
20260504201838 74 170 3.0 0.0 0.00 0.00 0.00 49 1009.3
20260504201304 74 220 1.0 0.0 0.00 0.00 0.00 49 1009.5
20260504200200 74 134 0.0 0.0 0.00 0.00 0.00 50 1009.6
20260504195626 74 164 2.0 0.0 0.00 0.00 0.00 49 1009.7
20260504194522 73 270 2.0 0.0 0.00 0.00 0.00 49 1009.8
20260504193418 73 160 1.0 0.0 0.00 0.00 0.00 49 1009.8
20260504192844 73 145 1.0 0.0 0.00 0.00 0.00 49 1010.0
20260504191740 73 276 2.0 0.0 0.00 0.00 0.00 52 1010.1
20260504191206 73 215 1.0 0.0 0.00 0.00 0.00 50 1010.2
20260504190632 73 223 1.0 0.0 0.00 0.00 0.00 50 1010.2
20260504184958 72 235 2.0 0.0 0.00 0.00 0.00 50 1010.6
20260504182753 72 257 2.0 0.0 0.00 0.00 0.00 50 1011.0
20260504182219 72 190 2.0 0.0 0.00 0.00 0.00 52 1011.0
20260504181645 72 154 2.0 0.0 0.00 0.00 0.00 50 1011.2
20260504181111 72 208 3.0 0.0 0.00 0.00 0.00 51 1011.3
20260504180537 72 210 1.0 0.0 0.00 0.00 0.00 52 1011.3
20260504180003 72 151 1.0 0.0 0.00 0.00 0.00 53 1011.4
20260504175429 71 170 4.0 0.0 0.00 0.00 0.00 52 1011.5
20260504174325 71 151 2.0 0.0 0.00 0.00 0.00 51 1011.8
20260504173751 71 301 2.0 0.0 0.00 0.00 0.00 53 1011.8
20260504173217 71 249 1.0 0.0 0.00 0.00 0.00 52 1011.9
20260504172643 71 241 2.0 0.0 0.00 0.00 0.00 52 1011.9
20260504172109 70 220 2.0 0.0 0.00 0.00 0.00 52 1011.9
20260504171535 70 164 1.0 0.0 0.00 0.00 0.00 51 1012.0
20260504160329 67 181 1.0 0.0 0.00 0.00 0.00 54 1012.9
20260504150756 65 165 1.0 0.0 0.00 0.00 0.00 55 1013.7
20260504150222 65 171 2.0 0.0 0.00 0.00 0.00 54 1013.6
20260504141224 62 154 2.0 0.0 0.00 0.00 0.00 59 1013.6
20260504140650 61 218 0.0 0.0 0.00 0.00 0.00 58 1013.7
20260504130551 55 180 0.0 0.0 0.00 0.00 0.00 68 1014.1
20260504110338 48 181 0.0 0.0 0.00 0.00 0.00 79 1014.7
20260504100227 49 182 0.0 0.0 0.00 0.00 0.00 77 1014.6
20260504090125 50 182 0.0 0.0 0.00 0.00 0.00 75 1014.9
20260504081704 50 182 1.0 0.0 0.00 0.00 0.00 74 1014.9
20260504081130 50 182 0.0 0.0 0.00 0.00 0.00 74 1014.8
20260504080556 50 179 1.0 0.0 0.00 0.00 0.00 75 1014.7
20260504050253 46 285 0.0 0.0 0.00 0.00 0.00 81 1015.5
20260504045719 46 285 0.0 0.0 0.00 0.00 0.00 81 1015.3
20260504045145 46 285 0.0 0.0 0.00 0.00 0.00 81 1015.3
20260504044041 46 285 0.0 0.0 0.00 0.00 0.00 82 1015.4
20260504042937 46 285 0.0 0.0 0.00 0.00 0.00 81 1015.4
20260504042403 46 285 0.0 0.0 0.00 0.00 0.00 80 1015.3
20260504041258 46 285 0.0 0.0 0.00 0.00 0.00 79 1015.3
20260504040725 46 285 0.0 0.0 0.00 0.00 0.00 79 1015.3
20260504040150 46 285 0.0 0.0 0.00 0.00 0.00 79 1015.3
20260504035616 46 285 0.0 0.0 0.00 0.00 0.00 77 1015.3
20260504035042 46 285 0.0 0.0 0.00 0.00 0.00 78 1015.4
20260504034508 46 285 0.0 0.0 0.00 0.00 0.00 77 1015.4
20260504033404 46 285 0.0 0.0 0.00 0.00 0.00 79 1015.4
20260504032830 46 285 0.0 0.0 0.00 0.00 0.00 79 1015.3
20260504031726 46 285 0.0 0.0 0.00 0.00 0.00 77 1015.2
20260504030052 46 285 0.0 0.0 0.00 0.00 0.00 78 1015.2
20260504024948 47 285 0.0 0.0 0.00 0.00 0.00 76 1015.1
20260504024414 47 285 0.0 0.0 0.00 0.00 0.00 76 1015.1
20260504023840 47 285 0.0 0.0 0.00 0.00 0.00 76 1015.0
20260504023306 47 285 0.0 0.0 0.00 0.00 0.00 76 1015.0
20260504022202 48 285 0.0 0.0 0.00 0.00 0.00 74 1015.0
20260504021628 48 285 0.0 0.0 0.00 0.00 0.00 72 1015.0
20260504021054 48 285 0.0 0.0 0.00 0.00 0.00 70 1014.9
20260504015950 49 285 0.0 0.0 0.00 0.00 0.00 71 1014.9
20260504013746 50 285 0.0 0.0 0.00 0.00 0.00 68 1014.6
20260504011541 51 285 0.0 0.0 0.00 0.00 0.00 65 1014.5
20260504011007 51 285 0.0 0.0 0.00 0.00 0.00 66 1014.5
20260504005903 52 285 0.0 0.0 0.00 0.00 0.00 65 1014.5
20260504005329 52 285 0.0 0.0 0.00 0.00 0.00 64 1014.4
20260504004225 53 285 0.0 0.0 0.00 0.00 0.00 61 1014.2
20260504003651 54 285 0.0 0.0 0.00 0.00 0.00 61 1014.3
20260504002547 55 293 0.0 0.0 0.00 0.00 0.00 58 1014.2
20260504001443 56 293 0.0 0.0 0.00 0.00 0.00 56 1014.1
20260504000909 56 293 0.0 0.0 0.00 0.00 0.00 55 1014.0
20260504000335 57 293 0.0 0.0 0.00 0.00 0.00 54 1014.0
20260503235801 57 293 0.0 0.0 0.00 0.00 0.00 53 1014.0
20260503235227 58 293 0.0 0.0 0.00 0.00 0.00 53 1013.9
20260503234653 59 293 0.0 0.0 0.00 0.00 0.00 53 1013.9
20260503233549 59 293 0.0 0.0 0.00 0.00 0.00 52 1013.9
20260503231915 60 293 0.0 0.0 0.00 0.00 0.00 47 1013.7
20260503231341 60 293 0.0 0.0 0.00 0.00 0.00 47 1013.7
20260503230807 60 293 0.0 0.0 0.00 0.00 0.00 46 1013.6